Regional Weather Roundup
Issued by NWS

Home | Current Version | Previous Version | Graphics & Text | Print | Product List | Glossary On
Versions: 1 2 3 4 5 6 7 8 9 10 11 12 13 14 15 16 17 18 19 20 21 22 23 24 25 26 27 28 29 30 31 32 33 34 35 36 37 38 39 40 41 42 43 44 45 46 47 48 49 50
000
ASUS45 KBOI 231510
RWRID
WEATHER ROUNDUP FOR IDAHO
NATIONAL WEATHER SERVICE BOISE ID
900 AM MDT WED JUL 23 2014

NOTE: "FAIR" INDICATES FEW OR NO CLOUDS BELOW 12000 FEET
WITH NO SIGNIFICANT WEATHER AND/OR OBSTRUCTIONS TO VISIBILITY

IDZ012-014-231600-
SOUTHWEST IDAHO


CITY           SKY/WX    TMP DP  RH WIND       PRES   REMARKS
BOISE          MOSUNNY   69  55  60 CALM      30.08R
CALDWELL       MOSUNNY   68  54  60 CALM      30.09R
MOUNTAIN HOME  SUNNY     73  54  52 W8        30.08R
$$

IDZ016-017-231600-
SOUTHCENTRAL IDAHO


CITY           SKY/WX    TMP DP  RH WIND       PRES   REMARKS
BURLEY         MOSUNNY   73  47  39 SW6       30.15R
JEROME         PTSUNNY   69  50  50 SE6       30.16R
TWIN FALLS     MOSUNNY   77  45  32 S7        30.16R
$$

IDZ019>023-231600-
SOUTHEAST IDAHO


CITY           SKY/WX    TMP DP  RH WIND       PRES   REMARKS
IDAHO FALLS    MOSUNNY   71  50  47 SW13      30.21R
POCATELLO      SUNNY     73  47  39 W12       30.20R
REXBURG        SUNNY     69  50  50 SW8       30.21R
$$

IDZ006-010-011-018-031-032-231600-
CENTRAL IDAHO MOUNTAINS


CITY           SKY/WX    TMP DP  RH WIND       PRES   REMARKS
MCCALL         SUNNY     63  51  65 CALM      30.17R
HAILEY         MOSUNNY   64  45  48 CALM      30.23R
STANLEY          N/A     56  49  77 E5        30.32S
SALMON         SUNNY     64  52  63 CALM      30.21S
CHALLIS        SUNNY     66  49  54 E3        30.25S
$$

IDZ002-004-006-007-026-231600-
NORTHERN IDAHO


CITY           SKY/WX    TMP DP  RH WIND       PRES   REMARKS
LEWISTON       SUNNY     70  59  68 SE5       29.97S
LOWELL           N/A     67  58  72 CALM      30.02F
COEUR D`ALENE  SUNNY     66  57  72 E16       30.03F
MULLAN PASS    SUNNY     54  48  80 SE8G21    30.18F
$$



USA.gov is the U.S. government's official web portal to all federal, state and local government web resources and services.